Location: Erlach
(47.0430°N, 7.0996°E)
Time: 07:44:35
(UTC+00:00)

Iridium 2 - Pass Details

Date: 07 June 2020
Orbit: 505 x 515 km, 85.5° (Epoch: 04 July)

Event Time Altitude Azimuth Distance (km) Brightness Sun altitude
Rises 01:55:22 0° 347° (NNW) 2,623 8.0 -12.9°
Reaches altitude 10° 01:57:35 10° 339° (NNW) 1,734 6.8 -12.7°
Maximum altitude 02:01:05 37° 272° (W) 811 4.4 -12.4°
Enters shadow 02:03:14 19° 216° (SW) 1,244 5.0 -12.1°
